Weather in Shumaki

Belarus     52°09′42″N   23°32′25″E
temp.,
°C
wind,
m/s
gust,
m/s
humid.,
%
clouds,
%
prec.,
mm/h
press.,
hPa
HPBL,
m
16 may, sun
sun1600:00+11ese11807 0.0 100910
03:00+9sse3385100 0.0 101033
06:00+9se3692100 0.0 1008107
09:00+13se4984100 0.1 1008401
12:00+17sse687396 0.4 10071162
15:00+18s5769100 2.1 10061269
18:00+17s477992 2.4 1005673
21:00+14ssw3788100 4.0 1005151
17 may, mon
mon1700:00+11w2296100 0.2 100642
03:00+11wsw2593100 0.2 1006145
06:00+10sw349594 0.0 100772
09:00+14ese22810 0.0 1007303
12:00+18se11590 0.0 10061109
15:00+20nnw115032 0.0 10051694
18:00+19nnw225430 0.0 1003876
21:00+15n357420 0.0 100268
18 may, tue
tue1800:00+13n228499 0.0 100116
03:00+12nw228498 0.0 100124
06:00+10wnw49921 0.0 1001167
09:00+14wnw568173 0.0 1002383
12:00+18wnw5568100 0.3 10021027
15:00+16wnw7776100 1.1 1004976
18:00+15wnw7975100 0.0 1005806
21:00+12wnw61085100 0.0 1006443
19 may, wed
wed1900:00+10nw71289100 0.0 1007500
03:00+10nw61192100 0.4 1008551
06:00+9nw51194100 0.9 1008468
09:00+11nw6987100 1.1 1009647
12:00+14nnw697198 0.1 10091247
15:00+14nw5774100 0.3 1009777
18:00+15nw456786 0.4 10091052
21:00+12nnw2284100 0.9 100926
20 may, thu
thu2000:00+9nw33921 0.0 100941
03:00+8nnw3695100 0.0 1010114
06:00+7nw3695100 0.0 1010161
09:00+10nw4583100 0.0 1011439
12:00+12nnw5774100 0.1 1011646
15:00+13nw567099 0.6 1011889
18:00+13nnw136994 0.6 1012433
21:00+11nw3784100 1.3 1012163